Terug naar catalogus

FENGYUN 1C DEB

ActiefSSO
NORAD 36272·DEBRIS·🇨🇳 China

Gelanceerd May 10, 1999 vanaf Taiyuan Satellite Launch Center

Loading…

Volgende Passages (komende 24 uur)

TLE

VerouderendSource: Space-Track

Epoch: Sep 9, 2026, 09:49 UTC

1 36272U 99025DWZ 26252.40949514  .00000349  00000-0  17002-3 0  9997
2 36272  99.1036 141.0014 0166776 220.4981 138.3685 14.17678247674514

Volg FENGYUN 1C DEB in realtime met AllMySat

Download on the App Store